Location: ???
(31.9987°N, 34.9456°E)
Time: 20:12:30
(UTC+00:00)

Daily predictions for brighter satellites

Satellite Brightness Start Highest point End
(mag) Time Altitude Azimuth Time Altitude Azimuth Time Altitude Azimuth
Nadezhda 1 Rocket 4.1 14:52:01 10° S 14:58:16 78° E 15:04:38 10° N
CZ-4B R/B 1.8 14:57:10 10° NNE 15:00:03 36° E 15:02:56 10° SSE
CRYOSAT 2 4.5 14:56:52 10° NNE 15:01:41 59° E 15:06:30 10° S
H-2A R/B 2.8 14:57:30 10° S 15:01:56 81° WSW 15:06:15 10° NNW
Cosmos 2292 4.1 15:00:44 10° S 15:03:44 78° E 15:06:51 10° N
COSMO-SKYMED 1 3.6 15:00:44 10° NE 15:04:27 27° E 15:08:08 10° SSE
H-2A R/B 4.3 15:01:28 10° S 15:05:01 40° W 15:08:37 10° NNW
Meteosat 1 Rocket2 4.2 14:58:43 10° W 15:05:17 54° S 15:09:43 10° ESE
Cosmos 1743 Rocket 3.5 15:00:55 10° N 15:05:23 72° E 15:09:47 10° SSE
Okean O Rocket 1.7 15:01:16 10° SSE 15:05:29 54° ENE 15:09:44 10° N
Cosmos 1933 4.4 15:11:05 10° SSE 15:14:24 25° E 15:17:44 10° NE
USA 281 4.2 15:11:54 10° ESE 15:16:41 22° NE 15:21:28 10° N
Sich 1 3.7 15:13:32 10° NNE 15:17:26 31° E 15:21:19 10° SE
Cosmos 2154 Rocket 4.0 15:11:08 10° N 15:17:29 75° E 15:23:48 10° S
Orbus 7S 3.9 15:16:50 10° WSW 15:19:24 32° S 15:21:51 10° ESE
YAOGAN 6 3.9 15:18:02 10° S 15:21:33 45° W 15:25:05 10° NNW
SL-16 R/B 2.7 15:16:39 10° S 15:21:53 40° ESE 15:27:07 10° NE
SMAP 3.2 15:18:31 10° S 15:23:09 81° WSW 15:27:49 10° NNW
Cosmos 405 Rocket 2.9 15:19:38 10° N 15:23:34 81° W 15:27:31 10° S
Cosmos 2341 Rocket 4.3 15:18:48 10° N 15:24:44 43° E 15:30:41 10° SSE
Cosmos 1805 Rocket 3.6 15:21:19 10° N 15:25:42 57° E 15:30:03 10° SSE
Aureole 2 Rocket 4.0 15:23:46 10° NW 15:26:20 32° WSW 15:28:59 10° S
Cosmos 1151 Rocket 3.7 15:24:27 10° SSE 15:28:15 31° E 15:32:02 10° NNE
Cosmos 1328 Rocket 4.3 15:27:06 10° SSE 15:30:47 29° E 15:34:30 10° NNE
Cosmos 1666 Rocket 4.4 15:27:52 10° NNE 15:31:41 28° E 15:35:30 10° SE
CZ-2C R/B 4.0 15:31:35 10° ESE 15:35:42 24° ENE 15:39:41 10° NNE
Cosmos 1782 4.0 15:33:27 10° SE 15:36:22 20° E 15:36:49 20° E
ATLAS 5 CENTAUR R/B 4.0 15:33:09 10° NW 15:38:58 41° WSW 15:45:26 10° S
CZ-3B R/B 1.7 15:34:11 10° SSW 15:40:05 62° SE 15:41:23 26° ENE
Cosmos 1606 3.1 15:36:44 10° SSW 15:40:35 67° W 15:44:27 10° N
Cosmos 1867 3.6 15:35:41 10° SSW 15:41:05 82° WNW 15:46:33 10° NNE
MOS 1 Rocket 4.3 15:36:14 10° NNE 15:41:09 34° E 15:46:01 10° SSE
X-37B 2.6 15:39:41 10° S 15:41:36 15° SE 15:41:59 15° SE
Cosmos 389 Rocket 2.9 15:38:32 10° SSW 15:41:56 61° W 15:45:20 10° N
Cosmos 2181 Rocket 4.0 15:41:48 10° S 15:48:11 72° E 15:54:35 10° N
SKYMED 2 3.7 15:48:14 10° N 15:52:34 74° WNW 15:56:53 10° SSW
SL-8 Rocket 4.0 15:46:51 10° N 15:52:57 55° E 15:59:05 10° SSE
Cosmos 1818 3.5 15:50:15 10° NNW 15:55:42 66° ENE 16:01:05 10° SE
Lacrosse 5 rocket 0.9 15:52:22 10° SW 15:56:04 87° NW 15:57:35 33° NE
Cosmos 2278 Rocket 2.5 15:52:08 10° NNW 15:57:47 71° WSW 16:03:24 10° S
CZ-4 R/B 3.4 15:54:50 10° SE 16:01:50 10° N 16:01:53 10° N
Cosmos 1633 Rocket 3.0 15:59:10 10° N 16:03:28 55° E 16:07:42 10° SSE
Meteor 1-25 Rocket 4.2 15:59:14 10° N 16:04:44 55° E 16:10:18 10° SSE
IRS-1C Rocket 4.0 16:00:59 10° SSE 16:06:15 80° ENE 16:11:32 10° N
CZ-2D R/B 3.0 16:02:52 10° SSE 16:06:38 73° ENE 16:10:26 10° N
Cosmos 1939 Rocket 3.3 16:09:09 10° S 16:12:55 58° W 16:16:44 10° NNW
Cosmos 1125 Rocket 4.0 16:09:16 10° NNW 16:14:22 59° WSW 16:19:29 10° S
Orbus 7S 3.8 16:13:18 10° WSW 16:16:16 35° S 16:16:17 35° S
USA 267 3.7 16:18:26 36° ENE 16:19:51 41° NE 16:25:50 10° NNW
YAOGAN 1 4.5 16:19:01 10° SSE 16:26:42 16° N 16:27:33 10° N
Cosmos 1689 Rocket 4.4 16:21:51 15° NNW 16:23:28 24° WNW 16:25:54 10° SW
SL-24 R/B - RUBIN 2 4.3 16:21:10 10° NNW 16:27:09 72° WSW 16:32:21 10° SSE
Meteor 1-4 Rocket 2.8 16:24:47 10° SSW 16:28:08 67° SW 16:28:08 67° SW
Okean-O 2.5 16:24:05 10° SSE 16:28:30 89° ENE 16:32:56 10° NNW
DMSP B5D1-3 4.4 16:28:32 29° NNE 16:31:17 89° WNW 16:36:25 10° SSW
Cosmos 2218 Rocket 4.0 16:30:20 10° N 16:36:27 76° W 16:42:34 10° S
Cosmos 1515 Rocket 3.6 16:34:10 10° SSW 16:38:29 73° W 16:38:36 72° WNW
ATLAS 3B CENTAUR R/B 3.4 16:36:56 10° WSW 16:37:25 15° WSW 16:37:25 15° WSW
H-2A R/B 3.3 16:34:53 10° SSE 16:42:58 29° N 16:45:31 10° N
Cosmos 2366 rocket 4.4 16:42:56 10° NNW 16:49:00 61° W 16:55:01 10° S
USA 281 3.6 16:54:11 10° S 17:00:38 60° WSW 17:07:07 10° NNW
Cosmos 2297 4.2 16:58:03 10° NNW 17:02:18 52° NNW 17:02:18 52° NNW
SL-16 R/B 4.3 17:01:41 10° WSW 17:06:04 23° WNW 17:09:55 12° NNW
Cosmos 1943 Rocket 4.5 17:07:30 10° NNW 17:07:55 12° NNW 17:07:55 12° NNW
ATLAS CENTAUR R/B 4.2 17:36:01 10° NW 17:47:59 57° NW 17:47:59 57° NW
